.
WxDataArchive / Data Records for 2011-10-19
2011-10-18 October 2011 2011-10-20

Data Records for Wednesday, 19 October 2011

Time	Temp	Chill	HIndex	Humid	Dewpt	 Wind 	HiWind	WindDir	Rain 	Barom 
-----	----	-----	------	-----	-----	------	------	-------	-----	----- 
00:00	44.5	44.5	44.5	92	42.3	0	3	112	0.00	29.756 
00:05	44.5	44.5	44.5	91	42.0	1	4	90	0.00	29.756 
00:10	44.5	44.5	44.5	91	42.0	0	3	90	0.00	29.756 
00:15	44.5	44.5	44.5	91	42.0	0	2	90	0.00	29.745 
00:20	44.5	44.5	44.5	92	42.3	0	1	90	0.00	29.745 
00:25	44.5	44.5	44.5	92	42.3	0	5	112	0.00	29.745 
00:30	44.5	44.5	44.5	92	42.3	0	3	22	0.01	29.737 
00:35	44.5	44.5	44.5	92	42.3	0	1	248	0.00	29.737 
00:40	44.5	44.5	44.5	92	42.3	0	1	248	0.00	29.737 
00:45	44.5	44.5	44.5	92	42.3	0	2	248	0.00	29.727 
00:50	44.5	44.5	44.5	92	42.3	0	1	112	0.00	29.727 
00:55	44.5	44.5	44.5	92	42.3	0	2	22	0.00	29.727 
01:00	44.5	44.5	44.5	92	42.3	0	1	22	0.00	29.716 
01:05	44.5	44.5	44.5	92	42.3	0	1	22	0.00	29.716 
01:10	44.5	44.5	44.5	92	42.3	0	2	338	0.00	29.716 
01:15	44.5	44.5	44.5	92	42.3	0	4	112	0.00	29.711 
01:20	44.3	44.3	44.3	92	42.1	0	2	90	0.00	29.711 
01:25	44.3	44.3	44.3	92	42.1	0	2	90	0.01	29.711 
01:30	44.3	44.3	44.3	92	42.1	0	2	68	0.00	29.701 
01:35	44.5	44.5	44.5	92	42.3	0	1	68	0.00	29.701 
01:40	44.5	44.5	44.5	93	42.6	0	4	68	0.00	29.701 
01:45	44.5	44.5	44.5	92	42.3	0	3	90	0.00	29.701 
01:50	44.5	44.5	44.5	92	42.3	0	2	90	0.00	29.701 
01:55	44.5	44.5	44.5	92	42.3	0	2	90	0.00	29.701 
02:00	44.5	44.5	44.5	92	42.3	0	3	90	0.00	29.701 
02:05	44.5	44.5	44.5	92	42.3	0	3	90	0.00	29.701 
02:10	44.5	44.5	44.5	92	42.3	0	3	90	0.00	29.701 
02:15	44.5	44.5	44.5	92	42.3	0	2	90	0.00	29.696 
02:20	44.5	44.5	44.5	92	42.3	0	5	90	0.00	29.696 
02:25	44.5	44.5	44.5	92	42.3	0	3	135	0.00	29.696 
02:30	44.5	44.5	44.5	92	42.3	1	9	90	0.00	29.691 
02:35	44.5	44.5	44.5	92	42.3	1	4	90	0.00	29.691 
02:40	44.5	44.5	44.5	92	42.3	0	2	90	0.00	29.691 
02:45	44.5	44.5	44.5	92	42.3	0	3	90	0.00	29.686 
02:50	44.5	44.5	44.5	92	42.3	1	6	135	0.00	29.686 
02:55	44.5	44.5	44.5	92	42.3	1	4	68	0.00	29.686 
03:00	44.5	44.5	44.5	92	42.3	1	5	90	0.00	29.683 
03:05	44.5	44.5	44.5	92	42.3	1	5	90	0.00	29.683 
03:10	44.5	44.5	44.5	92	42.3	0	2	90	0.00	29.683 
03:15	44.5	44.5	44.5	92	42.3	0	2	90	0.00	29.680 
03:20	44.5	44.5	44.5	92	42.3	0	1	90	0.00	29.680 
03:25	44.5	44.5	44.5	92	42.3	0	2	90	0.00	29.680 
03:30	44.5	44.5	44.5	93	42.6	0	3	90	0.00	29.663 
03:35	44.5	44.5	44.5	93	42.6	0	2	90	0.00	29.663 
03:40	44.5	44.5	44.5	93	42.6	0	3	112	0.00	29.663 
03:45	44.5	44.5	44.5	93	42.6	0	2	68	0.00	29.650 
03:50	44.5	44.5	44.5	93	42.6	1	4	22	0.00	29.650 
03:55	44.5	44.5	44.5	93	42.6	0	3	68	0.00	29.650 
04:00	44.5	44.5	44.5	93	42.6	0	5	112	0.00	29.647 
04:05	44.5	44.5	44.5	93	42.6	1	3	135	0.00	29.647 
04:10	44.5	44.5	44.5	93	42.6	1	4	135	0.00	29.647 
04:15	44.5	44.5	44.5	93	42.6	0	2	90	0.00	29.634 
04:20	44.5	44.5	44.5	93	42.6	1	5	0	0.00	29.634 
04:25	44.5	44.5	44.5	93	42.6	0	2	112	0.01	29.634 
04:30	44.5	44.5	44.5	93	42.6	1	3	135	0.00	29.620 
04:35	44.5	44.5	44.5	93	42.6	1	9	90	0.00	29.620 
04:40	44.6	44.6	44.6	93	42.7	1	4	45	0.00	29.620 
04:45	44.6	44.6	44.6	93	42.7	1	5	112	0.00	29.616 
04:50	44.6	44.6	44.6	93	42.7	1	7	112	0.00	29.616 
04:55	44.6	44.6	44.6	93	42.7	0	2	45	0.00	29.616 
05:00	44.6	44.6	44.6	93	42.7	1	3	45	0.00	29.618 
05:05	44.6	44.6	44.6	93	42.7	0	3	135	0.00	29.618 
05:10	44.6	44.6	44.6	93	42.7	0	2	135	0.01	29.618 
05:15	44.6	44.6	44.6	93	42.7	1	4	45	0.00	29.617 
05:20	44.6	44.6	44.6	93	42.7	0	2	135	0.01	29.617 
05:25	44.6	44.6	44.6	93	42.7	0	3	68	0.00	29.617 
05:30	44.6	44.6	44.6	93	42.7	0	4	270	0.00	29.603 
05:35	44.6	44.6	44.6	93	42.7	0	2	270	0.00	29.603 
05:40	44.8	44.8	44.8	93	42.9	0	2	270	0.00	29.603 
05:45	44.8	44.8	44.8	93	42.9	0	2	270	0.00	29.615 
05:50	44.8	44.8	44.8	93	42.9	0	2	315	0.00	29.615 
05:55	44.9	44.9	44.9	93	43.0	0	2	0	0.00	29.615 
06:00	44.9	44.9	44.9	93	43.0	0	1	0	0.01	29.617 
06:05	44.9	44.9	44.9	94	43.3	0	2	0	0.00	29.617 
06:10	44.9	44.9	44.9	94	43.3	0	3	0	0.00	29.617 
06:15	44.9	44.9	44.9	94	43.3	1	2	0	0.00	29.605 
06:20	45.1	45.1	45.1	94	43.5	0	2	0	0.01	29.605 
06:25	45.1	45.1	45.1	94	43.5	0	2	0	0.00	29.605 
06:30	45.1	45.1	45.1	94	43.5	1	3	0	0.00	29.606 
06:35	45.2	45.2	45.2	94	43.6	1	2	315	0.00	29.606 
06:40	45.2	45.2	45.2	94	43.6	0	3	112	0.01	29.606 
06:45	45.2	45.2	45.2	94	43.6	1	3	0	0.00	29.615 
06:50	45.2	45.2	45.2	94	43.6	0	3	0	0.01	29.615 
06:55	45.2	45.2	45.2	94	43.6	0	3	0	0.01	29.615 
07:00	45.2	45.2	45.2	94	43.6	0	1	338	0.02	29.607 
07:05	45.4	45.4	45.4	94	43.8	1	3	338	0.01	29.607 
07:10	45.4	45.4	45.4	94	43.8	1	3	0	0.02	29.607 
07:15	45.4	45.4	45.4	94	43.8	0	3	68	0.01	29.590 
07:20	45.4	45.4	45.4	94	43.8	0	2	68	0.00	29.590 
07:25	45.4	45.4	45.4	95	44.1	0	3	68	0.01	29.590 
07:30	45.4	45.4	45.4	94	43.8	0	2	0	0.00	29.586 
07:35	45.4	45.4	45.4	95	44.1	1	3	338	0.01	29.586 
07:40	45.4	45.4	45.4	95	44.1	1	3	338	0.00	29.586 
07:45	45.4	45.4	45.4	95	44.1	0	4	338	0.00	29.578 
07:50	45.4	45.4	45.4	95	44.1	0	4	315	0.01	29.578 
07:55	45.4	45.4	45.4	95	44.1	1	3	0	0.00	29.578 
08:00	45.4	45.4	45.4	95	44.1	1	2	0	0.00	29.579 
08:05	45.4	45.4	45.4	95	44.1	1	6	338	0.01	29.579 
08:10	45.4	45.4	45.4	95	44.1	1	7	45	0.01	29.579 
08:15	45.4	45.4	45.4	95	44.1	2	7	90	0.01	29.564 
08:20	45.4	45.4	45.4	95	44.1	0	2	0	0.00	29.564 
08:25	45.4	45.4	45.4	95	44.1	0	2	0	0.00	29.564 
08:30	45.4	45.4	45.4	95	44.1	0	2	292	0.01	29.560 
08:35	45.4	45.4	45.4	95	44.1	0	3	158	0.00	29.560 
08:40	45.4	45.4	45.4	95	44.1	1	3	270	0.00	29.560 
08:45	45.5	45.5	45.5	95	44.2	1	3	315	0.01	29.558 
08:50	45.5	45.5	45.5	95	44.2	1	4	22	0.02	29.558 
08:55	45.4	45.4	45.4	95	44.1	0	3	338	0.02	29.558 
09:00	45.4	45.4	45.4	95	44.1	1	5	90	0.02	29.557 
09:05	45.4	45.4	45.4	95	44.1	1	4	248	0.01	29.557 
09:10	45.4	45.4	45.4	95	44.1	1	3	0	0.00	29.557 
09:15	45.5	45.5	45.5	95	44.2	0	4	292	0.00	29.560 
09:20	45.5	45.5	45.5	95	44.2	1	9	45	0.00	29.560 
09:25	45.5	45.5	45.5	95	44.2	0	3	112	0.00	29.560 
09:30	45.5	45.5	45.5	95	44.2	0	3	68	0.01	29.560 
09:35	45.5	45.5	45.5	95	44.2	1	4	338	0.00	29.560 
09:40	45.5	45.5	45.5	95	44.2	1	4	338	0.00	29.560 
09:45	45.5	45.5	45.5	95	44.2	1	3	338	0.00	29.554 
09:50	45.7	45.7	45.7	95	44.4	1	4	90	0.00	29.554 
09:55	45.7	45.7	45.7	95	44.4	1	4	135	0.00	29.554 
10:00	45.7	45.7	45.7	95	44.4	1	7	90	0.01	29.543 
10:05	45.7	45.7	45.7	95	44.4	1	5	338	0.00	29.543 
10:10	45.8	45.8	45.8	95	44.4	1	3	45	0.00	29.543 
10:15	45.8	45.8	45.8	95	44.4	1	3	0	0.00	29.546 
10:20	45.8	45.8	45.8	95	44.4	1	3	45	0.00	29.546 
10:25	45.8	45.8	45.8	95	44.4	0	2	112	0.02	29.546 
10:30	45.8	45.8	45.8	95	44.4	1	3	90	0.00	29.538 
10:35	45.8	45.8	45.8	95	44.4	0	2	292	0.00	29.538 
10:40	45.8	45.8	45.8	95	44.4	1	3	292	0.00	29.538 
10:45	45.8	45.8	45.8	95	44.4	1	3	315	0.00	29.522 
10:50	45.8	45.8	45.8	95	44.4	0	2	315	0.00	29.522 
10:55	45.8	45.8	45.8	95	44.4	1	4	315	0.00	29.522 
11:00	46.0	46.0	46.0	95	44.6	0	4	270	0.00	29.525 
11:05	46.0	46.0	46.0	95	44.6	0	3	0	0.00	29.525 
11:10	46.0	46.0	46.0	95	44.6	1	4	270	0.00	29.525 
11:15	46.0	46.0	46.0	95	44.6	1	3	315	0.00	29.509 
11:20	46.0	46.0	46.0	95	44.6	1	5	0	0.00	29.509 
11:25	46.1	46.1	46.1	95	44.7	0	2	68	0.00	29.509 
11:30	46.1	46.1	46.1	95	44.7	0	2	68	0.00	29.499 
11:35	46.0	46.0	46.0	95	44.6	1	7	45	0.00	29.499 
11:40	46.1	46.1	46.1	95	44.7	1	5	338	0.00	29.499 
11:45	46.1	46.1	46.1	95	44.7	0	3	0	0.00	29.501 
11:50	46.1	46.1	46.1	95	44.7	1	3	22	0.00	29.501 
11:55	46.2	46.2	46.2	95	44.8	1	3	22	0.01	29.501 
12:00	46.2	46.2	46.2	95	44.8	1	5	45	0.00	29.502 
12:05	46.2	46.2	46.2	95	44.8	1	2	315	0.00	29.502 
12:10	46.2	46.2	46.2	95	44.8	0	2	338	0.00	29.502 
12:15	46.4	46.4	46.4	95	45.0	1	5	135	0.00	29.505 
12:20	46.4	46.4	46.4	95	45.0	1	4	0	0.00	29.505 
12:25	46.4	46.4	46.4	95	45.0	1	3	0	0.00	29.505 
12:30	46.4	46.4	46.4	95	45.0	1	6	112	0.00	29.490 
12:35	46.4	46.4	46.4	95	45.0	1	5	112	0.00	29.490 
12:40	46.5	46.5	46.5	95	45.1	1	4	90	0.00	29.490 
12:45	46.5	46.5	46.5	95	45.1	1	4	338	0.00	29.471 
12:50	46.7	46.7	46.7	95	45.3	0	2	22	0.00	29.471 
12:55	46.8	46.8	46.8	95	45.4	0	2	338	0.00	29.471 
13:00	46.8	46.8	46.8	95	45.4	1	10	338	0.00	29.462 
13:05	46.8	46.8	46.8	95	45.4	0	2	0	0.00	29.462 
13:10	47.0	47.0	47.0	95	45.6	1	5	22	0.01	29.462 
13:15	47.0	47.0	47.0	95	45.6	0	2	315	0.00	29.462 
13:20	47.0	47.0	47.0	95	45.6	1	5	22	0.00	29.462 
13:25	47.0	47.0	47.0	95	45.6	1	3	22	0.00	29.462 
13:30	47.1	47.1	47.1	95	45.7	0	4	338	0.00	29.459 
13:35	47.1	47.1	47.1	95	45.7	0	1	338	0.00	29.459 
13:40	47.1	47.1	47.1	95	45.7	0	1	338	0.00	29.459 
13:45	47.1	47.1	47.1	95	45.7	1	4	338	0.00	29.448 
13:50	47.3	47.3	47.3	95	45.9	0	3	0	0.00	29.448 
13:55	47.3	47.3	47.3	95	45.9	1	3	270	0.00	29.448 
14:00	47.3	47.3	47.3	95	45.9	0	2	292	0.00	29.445 
14:05	47.4	47.4	47.4	95	46.0	0	3	292	0.00	29.445 
14:10	47.4	47.4	47.4	95	46.0	0	1	292	0.00	29.445 
14:15	47.6	47.6	47.6	95	46.2	0	3	292	0.00	29.430 
14:20	47.6	47.6	47.6	95	46.2	0	1	292	0.00	29.430 
14:25	47.7	47.7	47.7	95	46.3	0	4	292	0.01	29.430 
14:30	47.9	47.9	47.9	95	46.5	0	1	135	0.00	29.425 
14:35	47.9	47.9	47.9	95	46.5	1	3	68	0.01	29.425 
14:40	48.0	48.0	48.0	95	46.6	0	2	68	0.01	29.425 
14:45	48.0	48.0	48.0	95	46.6	0	2	68	0.00	29.413 
14:50	48.2	48.2	48.2	95	46.8	0	4	248	0.01	29.413 
14:55	48.2	48.2	48.2	95	46.8	0	3	248	0.00	29.413 
15:00	48.2	48.2	48.2	95	46.8	0	4	248	0.00	29.402 
15:05	48.3	48.3	48.3	95	46.9	0	2	248	0.01	29.402 
15:10	48.3	48.3	48.3	95	46.9	0	2	248	0.01	29.402 
15:15	48.5	48.5	48.5	95	47.1	0	1	112	0.01	29.409 
15:20	48.5	48.5	48.5	95	47.1	0	2	112	0.02	29.409 
15:25	48.5	48.5	48.5	95	47.1	0	3	112	0.01	29.409 
15:30	48.5	48.5	48.5	95	47.1	0	2	338	0.01	29.398 
15:35	48.5	48.5	48.5	95	47.1	0	2	338	0.01	29.398 
15:40	48.6	48.6	48.6	95	47.2	0	1	338	0.01	29.398 
15:45	48.6	48.6	48.6	95	47.2	0	1	338	0.00	29.394 
15:50	48.6	48.6	48.6	95	47.2	0	2	338	0.02	29.394 
15:55	48.8	48.8	48.8	95	47.4	0	3	315	0.00	29.394 
16:00	48.8	48.8	48.8	95	47.4	0	1	315	0.01	29.390 
16:05	48.8	48.8	48.8	95	47.4	0	2	315	0.01	29.390 
16:10	48.9	48.9	48.9	95	47.5	0	2	315	0.00	29.390 
16:15	48.9	48.9	48.9	95	47.5	0	4	315	0.02	29.394 
16:20	48.9	48.9	48.9	95	47.5	0	4	112	0.01	29.394 
16:25	48.9	48.9	48.9	95	47.5	0	1	112	0.01	29.394 
16:30	48.9	48.9	48.9	95	47.5	0	3	112	0.01	29.395 
16:35	48.8	48.8	48.8	95	47.4	0	2	22	0.02	29.395 
16:40	48.8	48.8	48.8	95	47.4	0	2	22	0.01	29.395 
16:45	48.8	48.8	48.8	95	47.4	0	1	22	0.02	29.391 
16:50	48.8	48.8	48.8	95	47.4	0	2	22	0.02	29.391 
16:55	48.6	48.6	48.6	95	47.2	0	4	292	0.01	29.391 
17:00	48.6	48.6	48.6	95	47.2	1	2	315	0.01	29.382 
17:05	48.6	48.6	48.6	95	47.2	1	5	315	0.02	29.382 
17:10	48.6	48.6	48.6	95	47.2	1	4	315	0.03	29.382 
17:15	48.5	48.5	48.5	95	47.1	1	3	315	0.02	29.375 
17:20	48.5	48.5	48.5	95	47.1	1	4	22	0.02	29.375 
17:25	48.3	48.3	48.3	95	46.9	1	3	315	0.03	29.375 
17:30	48.3	48.3	48.3	95	46.9	1	5	338	0.02	29.373 
17:35	48.3	48.3	48.3	95	46.9	1	4	45	0.02	29.373 
17:40	48.3	48.3	48.3	95	46.9	1	4	22	0.01	29.373 
17:45	48.2	48.2	48.2	95	46.8	1	4	338	0.03	29.367 
17:50	48.2	48.2	48.2	96	47.1	1	6	338	0.02	29.367 
17:55	48.2	48.2	48.2	95	46.8	0	4	338	0.01	29.367 
18:00	48.0	48.0	48.0	95	46.6	1	6	315	0.01	29.361 
18:05	48.0	48.0	48.0	96	46.9	1	5	0	0.01	29.361 
18:10	48.0	48.0	48.0	96	46.9	2	7	270	0.00	29.361 
18:15	48.0	48.0	48.0	96	46.9	1	5	0	0.01	29.352 
18:20	48.0	48.0	48.0	96	46.9	1	4	292	0.02	29.352 
18:25	48.0	48.0	48.0	96	46.9	1	4	0	0.01	29.352 
18:30	47.9	47.9	47.9	96	46.8	1	3	0	0.00	29.350 
18:35	47.9	47.9	47.9	96	46.8	1	3	338	0.01	29.350 
18:40	47.9	47.9	47.9	96	46.8	1	3	338	0.01	29.350 
18:45	47.9	47.9	47.9	96	46.8	1	3	338	0.01	29.349 
18:50	47.9	47.9	47.9	96	46.8	1	3	292	0.01	29.349 
18:55	47.9	47.9	47.9	96	46.8	0	2	292	0.01	29.349 
19:00	47.7	47.7	47.7	96	46.6	1	4	0	0.02	29.347 
19:05	47.7	47.7	47.7	96	46.6	1	6	270	0.03	29.347 
19:10	47.7	47.7	47.7	96	46.6	1	3	315	0.01	29.347 
19:15	47.7	47.7	47.7	96	46.6	1	5	338	0.01	29.348 
19:20	47.7	47.7	47.7	96	46.6	1	5	270	0.02	29.348 
19:25	47.7	47.7	47.7	96	46.6	0	3	338	0.01	29.348 
19:30	47.7	47.7	47.7	96	46.6	1	5	292	0.01	29.339 
19:35	47.7	47.7	47.7	96	46.6	1	3	315	0.01	29.339 
19:40	47.7	47.7	47.7	96	46.6	1	3	315	0.00	29.339 
19:45	47.7	47.7	47.7	96	46.6	2	5	0	0.01	29.339 
19:50	47.7	47.7	47.7	96	46.6	1	6	315	0.01	29.339 
19:55	47.7	47.7	47.7	96	46.6	1	4	315	0.00	29.339 
20:00	47.7	47.7	47.7	96	46.6	1	6	270	0.01	29.336 
20:05	47.7	47.7	47.7	96	46.6	1	3	248	0.00	29.336 
20:10	47.7	47.7	47.7	96	46.6	1	4	315	0.01	29.336 
20:15	47.7	47.7	47.7	96	46.6	1	5	292	0.01	29.333 
20:20	47.6	47.6	47.6	95	46.2	1	6	0	0.00	29.333 
20:25	47.6	47.6	47.6	95	46.2	2	7	292	0.01	29.333 
20:30	47.4	47.4	47.4	95	46.0	1	5	292	0.01	29.322 
20:35	47.3	47.3	47.3	95	45.9	2	5	315	0.01	29.322 
20:40	47.1	47.1	47.1	95	45.7	1	4	0	0.01	29.322 
20:45	47.0	47.0	47.0	95	45.6	1	6	338	0.00	29.318 
20:50	47.0	47.0	47.0	95	45.6	1	7	315	0.01	29.318 
20:55	46.8	46.8	46.8	95	45.4	2	6	270	0.00	29.318 
21:00	46.8	46.8	46.8	95	45.4	2	7	0	0.01	29.312 
21:05	46.7	46.7	46.7	95	45.3	1	5	338	0.01	29.312 
21:10	46.7	46.7	46.7	95	45.3	2	6	338	0.01	29.312 
21:15	46.5	46.5	46.5	95	45.1	1	5	292	0.00	29.304 
21:20	46.5	46.5	46.5	95	45.1	2	6	315	0.01	29.304 
21:25	46.4	46.4	46.4	95	45.0	1	6	338	0.01	29.304 
21:30	46.4	46.4	46.4	95	45.0	2	7	338	0.01	29.300 
21:35	46.4	46.4	46.4	95	45.0	2	6	315	0.01	29.300 
21:40	46.4	46.4	46.4	95	45.0	1	5	270	0.00	29.300 
21:45	46.4	46.4	46.4	95	45.0	1	7	292	0.01	29.292 
21:50	46.2	46.2	46.2	95	44.8	2	7	338	0.01	29.292 
21:55	46.2	46.2	46.2	95	44.8	2	7	292	0.01	29.292 
22:00	46.2	46.2	46.2	95	44.8	2	5	338	0.01	29.285 
22:05	46.2	46.2	46.2	95	44.8	3	7	22	0.01	29.285 
22:10	46.2	46.2	46.2	95	44.8	2	7	0	0.01	29.285 
22:15	46.2	46.2	46.2	95	44.8	2	7	0	0.00	29.273 
22:20	46.2	46.2	46.2	95	44.8	2	6	0	0.02	29.273 
22:25	46.2	46.2	46.2	95	44.8	2	4	338	0.00	29.273 
22:30	46.1	46.1	46.1	95	44.7	2	7	0	0.01	29.265 
22:35	46.1	46.1	46.1	95	44.7	2	8	270	0.02	29.265 
22:40	46.1	46.1	46.1	95	44.7	3	10	338	0.00	29.265 
22:45	46.1	46.1	46.1	95	44.7	2	5	338	0.00	29.254 
22:50	46.1	46.1	46.1	95	44.7	2	11	0	0.01	29.254 
22:55	46.1	46.1	46.1	95	44.7	2	7	315	0.00	29.254 
23:00	46.1	46.1	46.1	95	44.7	3	9	0	0.01	29.245 
23:05	46.1	46.1	46.1	95	44.7	2	6	0	0.01	29.245 
23:10	46.0	46.0	46.0	95	44.6	2	6	292	0.00	29.245 
23:15	45.8	45.8	45.8	95	44.4	2	6	292	0.01	29.241 
23:20	45.7	45.7	45.7	94	44.1	2	7	0	0.00	29.241 
23:25	45.4	45.4	45.4	94	43.8	2	6	0	0.01	29.241 
23:30	45.4	45.4	45.4	94	43.8	2	7	292	0.01	29.241 
23:35	45.2	45.2	45.2	94	43.6	2	7	315	0.01	29.241 
23:40	45.1	45.1	45.1	95	43.8	2	6	248	0.01	29.241 
23:45	44.9	44.9	44.9	95	43.6	3	11	0	0.00	29.228 
23:50	44.8	44.8	44.8	95	43.5	3	9	292	0.01	29.228 
23:55	44.8	44.8	44.8	95	43.5	2	7	0	0.01	29.228 

CoCoRaHS
IN-AL-39
A2 Web Hosting
Creative Commons License
GoDaddy
search engine by freefind advanced

loaded 2018-11-20 02:54:17 • last modified 2010-11-18 10:43:29
Privacy PolicyDisclaimer
• wx.awcolley.com is powered by PmWiki v.2002016 •
• all content (unless otherwise noted) © 2018 A W Colley